Regional Weather Roundup
Issued by NWS Cleveland, OH

Home | Current Version | Previous Version | Text Only | Print | Product List | Glossary Off
Versions: 1 2 3 4 5 6 7 8 9 10 11 12 13 14 15 16 17 18 19 20 21 22 23 24 25 26 27 28 29 30 31 32 33 34 35 36 37 38 39 40 41 42 43 44 45 46 47 48 49 50

000
ASUS41 KCLE 272202
RWRCLE
OHIO REGIONAL WEATHER ROUNDUP
NATIONAL WEATHER SERVICE CLEVELAND, OH
500 PM EST SAT DEC 27 2014

NOTE: "FAIR" INDICATES FEW OR NO CLOUDS BELOW 12,000 FEET WITH NO
SIGNIFICANT WEATHER AND/OR OBSTRUCTIONS TO VISIBILITY.

OHZ001>008-015>018-024>027-034-035-043-044-272300-
   NORTHWEST OHIO

CITY           SKY/WX    TMP DP  RH WIND       PRES   REMARKS
DEFIANCE       CLOUDY    48  44  86 SW14G24   30.02R
FINDLAY        CLOUDY    49  44  83 SW12      30.02R
TOLEDO EXPRESS CLOUDY    47  44  90 SW15G23   29.99R
TOLEDO EXEC    CLOUDY    49  44  83 SW18G25   30.01S
LIMA           CLOUDY    49  44  83 SW13      30.04R
$$

OHZ009>014-019>023-028>033-038-089-272300-
   NORTHEAST OHIO

CITY           SKY/WX    TMP DP  RH WIND       PRES   REMARKS
CLE-HOPKINS    CLOUDY    52  36  54 SW10      30.03F
CLE-LAKEFRONT  CLOUDY    55  35  47 S16G22    30.00F
CUY CO. ARPT   CLOUDY    55  37  50 SW12G22   30.02S
LORAIN-ELYRIA  CLOUDY    50  40  68 SW20G25   30.03R
ASHTABULA      CLOUDY    54  28  36 SW21G26   30.01S
AKRON-CANTON   CLOUDY    52  32  46 S14       30.04F
WOOSTER        CLOUDY    50  36  58 SW14G22   30.04F
MANSFIELD      CLOUDY    50  40  68 SW17G24   30.05R
YOUNGSTOWN     CLOUDY    54  25  32 SW13      30.04S
$$

OHZ042-051>053-060>062-070>072-077>081-272300-
  SOUTHWEST OHIO

CITY           SKY/WX    TMP DP  RH WIND       PRES   REMARKS
CINC-COVINGTON DRIZZLE   48  43  82 S3        30.10S
CINC-LUNKEN    CLOUDY    49  47  93 SW7       30.12R
HAMILTON       LGT RAIN  48  47  96 SW5       30.12R FOG
DAYTON         LGT RAIN  47  45  93 S10       30.08S
WRIGHT-PAT AFB LGT RAIN  47  46  96 SW6       30.09R
DAYTON GENERAL LGT RAIN  48  46  93 S8        30.08S FOG
WILMINGTON     LGT RAIN  48  44  86 SW13      30.08F
$$

OHZ036-037-039>041-045>050-054>059-063>069-073>076-082>088-272300-
  CENTRAL AND SOUTHEAST OHIO

CITY           SKY/WX    TMP DP  RH WIND       PRES   REMARKS
COLUMBUS       CLOUDY    52  39  61 SW9       30.09R
OSU AIRPORT    CLOUDY    51  41  68 SW14      30.09R
BOLTON FIELD   NOT AVBL
RICKENBACK AFB CLOUDY    52  39  62 SW8       30.08R
NEWARK         CLOUDY    53  36  52 SW5       30.07R
MARION         CLOUDY    50  42  74 SW14G23   30.05S
LANCASTER      CLOUDY    54  36  50 SW7       30.09R
ZANESVILLE     CLOUDY    54  31  41 S12       30.08F
NEW PHILLY     CLOUDY    54  33  45 S6        30.08F
$$



USA.gov is the U.S. government's official web portal to all federal, state and local government web resources and services.